When you browse on this site, cookies collect data to enhance your experience and personalize the content and advertising you see.
Visit our Privacy Policy to learn more. By continuing to use the site, you agree to this use of cookies and data.
  • In Spain
  • List of Countries
  • For 7 days
  • Water Temperature
  • Weather Map
  • Weather Widgets
  • user-avatar
    Login

    Hourly Weather Chervonyi Kut

    Today, 21 September, Saturday

    Time Temperature Precipitation Wind Pressure Humidity
    00:00 +4°C° 0 mm 3 mps 748 mmHg 93%
    01:00 +3°C° 0 mm 3 mps 748 mmHg 95%
    02:00 +4°C° 0 mm 2 mps 748 mmHg 96%
    03:00 +3°C° 0 mm 3 mps 749 mmHg 95%
    04:00 +4°C° 0 mm 3 mps 749 mmHg 93%
    05:00 +4°C° 0 mm 3 mps 749 mmHg 92%
    06:00 +5°C° 0 mm 3 mps 749 mmHg 88%
    07:00 +5°C° 0 mm 4 mps 750 mmHg 85%
    08:00 +6°C° 0 mm 4 mps 750 mmHg 81%
    09:00 +7°C° 0 mm 4 mps 750 mmHg 72%
    10:00 +10°C° 0 mm 4 mps 750 mmHg 62%
    11:00 +11°C° 0 mm 4 mps 750 mmHg 53%
    12:00 +10°C° 0.1 mm 5 mps 750 mmHg 50%
    13:00 +12°C° 0.1 mm 5 mps 750 mmHg 47%
    14:00 +12°C° 0.1 mm 5 mps 750 mmHg 44%
    15:00 +10°C° 0 mm 5 mps 750 mmHg 44%
    16:00 +10°C° 0 mm 4 mps 749 mmHg 44%
    17:00 +10°C° 0 mm 3 mps 749 mmHg 45%
    18:00 +9°C° 0 mm 3 mps 749 mmHg 46%
    19:00 +8°C° 0 mm 3 mps 749 mmHg 47%
    20:00 +8°C° 0 mm 2 mps 749 mmHg 48%
    21:00 +8°C° 0 mm 3 mps 748 mmHg 52%
    22:00 +7°C° 0 mm 4 mps 747 mmHg 56%
    23:00 +7°C° 0 mm 6 mps 747 mmHg 60%

    Tomorrow, 22 September, Sunday

    Time Temperature Precipitation Wind Pressure Humidity
    00:00 +7°C° 0.3 mm 6 mps 746 mmHg 71%
    01:00 +8°C° 0.3 mm 6 mps 745 mmHg 81%
    02:00 +8°C° 0.3 mm 6 mps 744 mmHg 92%
    03:00 +9°C° 0.8 mm 7 mps 744 mmHg 92%
    04:00 +10°C° 0.8 mm 7 mps 743 mmHg 92%
    05:00 +10°C° 0.8 mm 8 mps 742 mmHg 92%
    06:00 +11°C° 0.3 mm 8 mps 743 mmHg 90%
    07:00 +11°C° 0.3 mm 8 mps 743 mmHg 89%
    08:00 +11°C° 0.3 mm 8 mps 743 mmHg 88%
    09:00 +12°C° 0.1 mm 8 mps 743 mmHg 82%
    10:00 +12°C° 0.1 mm 8 mps 743 mmHg 76%
    11:00 +13°C° 0.1 mm 9 mps 743 mmHg 70%
    12:00 +13°C° 0.1 mm 9 mps 743 mmHg 68%
    13:00 +13°C° 0.1 mm 8 mps 744 mmHg 67%
    14:00 +13°C° 0.1 mm 8 mps 744 mmHg 65%
    15:00 +12°C° 0.1 mm 8 mps 744 mmHg 70%
    16:00 +12°C° 0.1 mm 7 mps 744 mmHg 74%
    17:00 +11°C° 0.1 mm 6 mps 744 mmHg 79%
    18:00 +10°C° 0.2 mm 6 mps 745 mmHg 80%
    19:00 +9°C° 0.2 mm 5 mps 745 mmHg 81%
    20:00 +8°C° 0.2 mm 4 mps 746 mmHg 82%
    21:00 +8°C° 0 mm 4 mps 746 mmHg 81%
    22:00 +8°C° 0 mm 3 mps 747 mmHg 80%
    23:00 +8°C° 0 mm 3 mps 747 mmHg 79%

    Day after tomorrow, 23 September, Monday

    Time Temperature Precipitation Wind Pressure Humidity
    00:00 +8°C° 0 mm 3 mps 748 mmHg 79%
    01:00 +7°C° 0 mm 3 mps 748 mmHg 79%
    02:00 +5°C° 0 mm 3 mps 749 mmHg 78%
    03:00 +5°C° 0 mm 2 mps 749 mmHg 81%
    04:00 +4°C° 0 mm 2 mps 749 mmHg 83%
    05:00 +3°C° 0 mm 2 mps 749 mmHg 85%
    06:00 +4°C° 0 mm 2 mps 750 mmHg 80%
    07:00 +4°C° 0 mm 3 mps 750 mmHg 75%
    08:00 +5°C° 0 mm 3 mps 751 mmHg 70%
    09:00 +7°C° 0 mm 3 mps 751 mmHg 62%
    10:00 +8°C° 0 mm 3 mps 751 mmHg 54%
    11:00 +10°C° 0 mm 3 mps 752 mmHg 46%
    12:00 +10°C° 0 mm 3 mps 751 mmHg 43%
    13:00 +11°C° 0 mm 3 mps 751 mmHg 39%
    14:00 +12°C° 0 mm 3 mps 751 mmHg 36%
    15:00 +12°C° 0 mm 2 mps 751 mmHg 40%
    16:00 +10°C° 0 mm 2 mps 751 mmHg 44%
    17:00 +9°C° 0 mm 2 mps 751 mmHg 47%
    18:00 +8°C° 0 mm 2 mps 751 mmHg 51%
    19:00 +7°C° 0 mm 2 mps 751 mmHg 54%
    20:00 +6°C° 0 mm 1 mps 752 mmHg 58%
    21:00 +6°C° 0 mm 1 mps 752 mmHg 60%
    22:00 +5°C° 0 mm 1 mps 752 mmHg 62%
    23:00 +5°C° 0 mm 1 mps 752 mmHg 65%

    24 September, Tuesday

    Time Temperature Precipitation Wind Pressure Humidity
    00:00 +5°C° 0 mm 1 mps 752 mmHg 66%
    01:00 +4°C° 0 mm 1 mps 752 mmHg 67%
    02:00 +4°C° 0 mm 1 mps 752 mmHg 69%
    03:00 +4°C° 0 mm 1 mps 752 mmHg 70%
    04:00 +3°C° 0 mm 1 mps 752 mmHg 71%
    05:00 +2°C° 0 mm 0 mps 752 mmHg 72%
    06:00 +5°C° 0 mm 1 mps 752 mmHg 66%
    07:00 +6°C° 0 mm 1 mps 752 mmHg 60%
    08:00 +8°C° 0 mm 1 mps 752 mmHg 55%
    09:00 +9°C° 0 mm 1 mps 752 mmHg 49%
    10:00 +10°C° 0 mm 1 mps 752 mmHg 44%
    11:00 +12°C° 0 mm 1 mps 752 mmHg 38%
    12:00 +12°C° 0 mm 1 mps 751 mmHg 37%
    13:00 +13°C° 0 mm 1 mps 751 mmHg 35%
    14:00 +13°C° 0 mm 1 mps 751 mmHg 33%
    15:00 +12°C° 0 mm 1 mps 750 mmHg 37%
    16:00 +11°C° 0 mm 1 mps 750 mmHg 40%
    17:00 +9°C° 0 mm 2 mps 750 mmHg 44%
    18:00 +8°C° 0 mm 2 mps 750 mmHg 48%
    19:00 +7°C° 0 mm 2 mps 750 mmHg 52%
    20:00 +5°C° 0 mm 3 mps 750 mmHg 56%
    21:00 +4°C° 0 mm 3 mps 750 mmHg 59%
    22:00 +4°C° 0 mm 3 mps 750 mmHg 62%
    23:00 +3°C° 0 mm 3 mps 750 mmHg 65%

    25 September, Wednesday

    Time Temperature Precipitation Wind Pressure Humidity
    00:00 +3°C° 0 mm 3 mps 750 mmHg 66%
    01:00 +4°C° 0 mm 2 mps 750 mmHg 67%
    02:00 +3°C° 0 mm 2 mps 750 mmHg 68%
    03:00 +3°C° 0 mm 2 mps 750 mmHg 68%
    04:00 +3°C° 0 mm 2 mps 750 mmHg 69%
    05:00 +3°C° 0 mm 2 mps 749 mmHg 69%
    06:00 +3°C° 0 mm 3 mps 750 mmHg 64%
    07:00 +5°C° 0 mm 3 mps 750 mmHg 58%
    08:00 +7°C° 0 mm 3 mps 750 mmHg 53%
    09:00 +9°C° 0 mm 3 mps 750 mmHg 47%
    10:00 +11°C° 0 mm 3 mps 750 mmHg 42%
    11:00 +13°C° 0 mm 3 mps 750 mmHg 36%
    12:00 +13°C° 0 mm 3 mps 750 mmHg 35%
    13:00 +15°C° 0 mm 2 mps 749 mmHg 35%
    14:00 +16°C° 0 mm 2 mps 749 mmHg 34%
    15:00 +15°C° 0 mm 2 mps 749 mmHg 38%
    16:00 +14°C° 0 mm 2 mps 749 mmHg 42%
    17:00 +13°C° 0 mm 2 mps 749 mmHg 46%
    18:00 +10°C° 0 mm 2 mps 749 mmHg 49%
    19:00 +9°C° 0 mm 2 mps 749 mmHg 51%
    20:00 +8°C° 0 mm 3 mps 749 mmHg 54%
    21:00 +8°C° 0 mm 3 mps 749 mmHg 55%
    22:00 +8°C° 0 mm 3 mps 749 mmHg 55%
    23:00 +7°C° 0 mm 3 mps 749 mmHg 56%

    26 September, Thursday

    Time Temperature Precipitation Wind Pressure Humidity
    00:00 +7°C° 0 mm 3 mps 749 mmHg 55%
    01:00 +7°C° 0 mm 3 mps 748 mmHg 55%
    02:00 +5°C° 0 mm 3 mps 748 mmHg 54%
    03:00 +5°C° 0 mm 3 mps 748 mmHg 54%
    04:00 +5°C° 0 mm 3 mps 748 mmHg 54%
    05:00 +5°C° 0 mm 3 mps 748 mmHg 54%
    06:00 +8°C° 0 mm 3 mps 748 mmHg 53%
    07:00 +9°C° 0 mm 3 mps 748 mmHg 52%
    08:00 +10°C° 0 mm 4 mps 748 mmHg 51%
    09:00 +12°C° 0 mm 4 mps 748 mmHg 49%
    10:00 +14°C° 0 mm 4 mps 748 mmHg 46%
    11:00 +17°C° 0 mm 4 mps 748 mmHg 44%
    12:00 +18°C° 0 mm 4 mps 748 mmHg 43%
    13:00 +19°C° 0 mm 3 mps 747 mmHg 42%
    14:00 +20°C° 0 mm 3 mps 747 mmHg 41%
    15:00 +19°C° 0 mm 3 mps 747 mmHg 45%
    16:00 +18°C° 0 mm 3 mps 747 mmHg 49%
    17:00 +17°C° 0 mm 2 mps 746 mmHg 53%
    18:00 +16°C° 0 mm 3 mps 746 mmHg 55%
    19:00 +14°C° 0 mm 3 mps 746 mmHg 57%
    20:00 +13°C° 0 mm 3 mps 746 mmHg 59%
    21:00 +13°C° 0 mm 3 mps 746 mmHg 60%
    22:00 +13°C° 0 mm 3 mps 746 mmHg 61%
    23:00 +12°C° 0 mm 4 mps 746 mmHg 62%
    Show more